Location: Brabourne
(51.1333°N, 1.0000°E)
Time: 08:39:30
(UTC+00:00)

Cosmos 841 Rocket - Pass Details

Date: 20 June 2021
Orbit: 747 x 772 km, 74.0° (Epoch: 02 August)

Event Time Altitude Azimuth Distance (km) Brightness Sun altitude
Exits shadow 02:02:58 14° 219° (SW) 2,030 5.1 -10.5°
Maximum altitude 02:07:25 61° 298° (WNW) 852 3.7 -10.1°
Drops below altitude 10° 02:12:31 10° 19° (NNE) 2,276 7.5 -9.7°
Sets 02:14:55 0° 23° (NNE) 3,204 8.9 -9.5°
